Regional Weather Roundup
Issued by NWS

Current Version | Previous Version | Text Only | Print | Product List | Glossary Off
Versions: 1 2 3 4 5 6 7 8 9 10 11 12 13 14 15 16 17 18 19 20 21 22 23 24 25 26 27

000
ASUS42 KFFC 240503
RWRGA
WEATHER ROUNDUP FOR GEORGIA
NATIONAL WEATHER SERVICE PEACHTREE CITY GA
100 AM EDT THU APR 24 2014

NOTE: "FAIR" INDICATES FEW OR NO CLOUDS BELOW 12,000 FEET WITH NO
SIGNIFICANT WEATHER AND/OR OBSTRUCTIONS TO VISIBILITY.

* = USE WITH CAUTION. THE STATIONS MARKED WITH AN ASTERISK MAY NOT
REPORT WEATHER SUCH AS PRECIPITATION, FOG, OR THUNDER AND ARE NOT
QUALITY CONTROLLED BY NWS.

THE REMARK "TC" DENOTES TEMPERATURE READING IN DEGREES CELSIUS.

GAZ001>058-240600-
NORTH GEORGIA

CITY           SKY/WX    TMP DP  RH WIND       PRES   REMARKS
ATLANTA        CLEAR     58  37  45 W5        29.95S
ATHENS         CLEAR     56  42  59 CALM      29.94S
CHAMBLEE       CLEAR     50  40  68 CALM      29.95S
PEACHTREE CITY CLEAR     47  44  90 CALM      29.97S
ROME           CLEAR     48  44  86 CALM      29.96S
WEST ATLANTA   CLEAR     51  32  48 CALM      29.95S
GAINESVILLE    CLEAR     57  35  43 CALM      29.97R
CARTERSVILLE   CLEAR     47  41  80 CALM      29.96F


CITY           SKY/WX    TMP DP  RH WIND       PRES   REMARKS
DALTON*        CLEAR     52  41  66 NW8       29.97S
MARIETTA       CLEAR     54  39  56 CALM      29.95F
$$

GAZ059>098-102>109-240600-
CENTRAL GEORGIA

CITY           SKY/WX    TMP DP  RH WIND       PRES   REMARKS
AUGUSTA-BUSH   CLEAR     50  48  93 CALM      29.94R
AUGUSTA-DANIEL CLEAR     63  46  54 CALM      29.95R
COLUMBUS       CLEAR     58  48  69 CALM      29.95S
MACON          CLEAR     51  50  96 W3        29.95R
ROBINS AFB     CLEAR     55  53  92 CALM      29.94S


CITY           SKY/WX    TMP DP  RH WIND       PRES   REMARKS
LAGRANGE*      CLEAR     49  46  92 CALM      29.96S
SYLVANIA*      CLEAR     58  54  86 CALM      29.94S FOG
MILLEDGEVILLE* CLEAR     54  43  66 CALM      29.95R
$$

GAZ099>101-110>166-240600-
SOUTH GEORGIA

CITY           SKY/WX    TMP DP  RH WIND       PRES   REMARKS
SAVANNAH       CLEAR     61  55  81 N5        29.93S
VALDOSTA       CLEAR     66  61  84 CALM      29.95R HAZE
ALMA           CLEAR     59  56  89 CALM      29.94R FOG
ST SIMONS      CLEAR     67  62  84 SW3       29.94S
FT STEWART     CLEAR     60  60 100 CALM      29.92S
ALBANY         CLEAR     62  59  90 CALM      29.95S
HUNTER AFB     CLEAR     60  56  86 SW1       29.91S
MOODY AFB      CLEAR     65  65  99 SW3       29.94R
BRUNSWICK      CLEAR     63  61  94 CALM      29.95S


CITY           SKY/WX    TMP DP  RH WIND       PRES   REMARKS
BAINBRIDGE*    PTCLDY    70  66  88 CALM      29.94S
MOULTRIE*      CLEAR     66  64  94 SW3       29.95S
VIDALIA*       CLEAR     61  55  82 CALM      29.94S
DOUGLAS*         N/A    N/A N/A N/A CALM      29.95S
$$



USA.gov is the U.S. government's official web portal to all federal, state and local government web resources and services.